[[[{"header":{"parameterUnit":"kt","parameterCategory":2,"dx":1,"dy":1,"la1":30.253999710083008,"la2":30.299108505249023,"lo1":-89.0895004272461,"lo2":-89.04439544677734,"nx":28,"ny":28,"refTime":"2022-10-15T21:00:00:Z","depth":0,"parameterNumber":1,"parameterNumberName":"U-component_of_WINDS"},"data":[-4.913,-4.9234,-4.9223,-4.9338,-4.9346,-4.9423,-4.9446,-4.9476,-4.9496,-4.9587,-4.9637,-4.9636,-4.9652,-4.9709,-4.9763,-4.9761,-4.9785,-4.9832,-4.9822,-4.9622,-4.9593,-4.9566,-4.9539,-4.9837,-4.9838,-5.003,-5.0032,-5.0033,-4.8988,-4.8998,-4.9055,-4.9101,-4.915,-4.9098,-4.9131,-4.9176,-4.9246,-4.9271,-4.9319,-4.9398,-4.9458,-4.9457,-4.9514,-4.9564,-4.9542,-4.958,-4.9575,-4.9579,-4.9365,-4.9337,-4.9597,-4.9597,-4.9597,-4.9596,-4.9596,-4.9596,-4.8727,-4.8791,-4.8811,-4.8872,-4.8892,-4.8924,-4.8982,-4.8978,-4.9033,-4.9089,-4.9063,-4.9142,-4.9165,-4.9225,-4.9242,-4.9304,-4.9259,-4.9296,-4.9306,-4.9315,-4.9328,-4.9054,-4.9313,-4.9312,-4.9311,-4.931,-4.931,0,-4.8532,-4.8517,-4.8569,-4.8619,-4.8663,-4.87,-4.8731,-4.8767,-4.873,-4.8777,-4.8845,-4.8881,-4.8954,-4.9016,-4.9065,-4.9074,-4.9024,-4.9017,-4.9042,-4.9056,-4.9063,-4.906,-4.8713,-4.9009,-4.9006,-4.9004,-4.9003,-4.9002,-4.8268,-4.8342,-4.8356,-4.8395,-4.8408,-4.8472,-4.8506,-4.8467,-4.8506,-4.8539,-4.8597,-4.8659,-4.8705,-4.8816,-4.8808,-4.8863,-4.8838,-4.8953,-4.8846,-4.8857,-4.884,-4.8835,-4.8843,-4.8974,-4.8977,-4.898,-4.8983,0,-4.812,-4.8097,-4.8208,-4.8213,-4.8217,-4.8298,-4.8302,-4.8364,-4.8351,-4.8434,-4.8451,-4.8433,-4.8499,-4.8473,-4.8543,-4.8528,-4.8663,-4.8637,-4.8655,-4.8648,-4.8748,-4.8739,-4.9077,-4.9119,-4.881,-4.8813,-4.8816,0,-4.7885,-4.7985,-4.7944,-4.8009,-4.8119,-4.8075,-4.8185,-4.8184,-4.8201,-4.8266,-4.8203,-4.8265,-4.8221,-4.828,-4.8257,-4.8362,-4.8375,-4.8369,-4.8362,-4.8374,-4.8375,-4.8393,-4.8378,-4.8341,-4.834,-4.8338,-4.8337,0,-4.7656,-4.7749,-4.7856,-4.7873,-4.7887,-4.7939,-4.7947,-4.7964,-4.7998,-4.8038,-4.806,-4.811,-4.8137,-4.8178,-4.8147,-4.8075,-4.8275,-4.817,-4.8268,-4.8269,-4.8312,-4.831,-4.8617,-4.8335,-4.8334,-4.8334,-4.8333,0,-4.7461,-4.7501,-4.7659,-4.7668,-4.7694,-4.7765,-4.7809,-4.7863,-4.7886,-4.7875,-4.7906,-4.7859,-4.7948,-4.7846,-4.7968,-4.7884,-4.7915,-4.7917,-4.7923,-4.7928,-4.7814,-4.799,-4.8286,-4.8315,-4.7936,-4.7932,-4.7929,0,-4.7206,-4.7357,-4.7318,-4.7469,-4.7534,-4.7458,-4.7535,-4.7556,-4.7547,-4.7602,-4.7592,-4.7655,-4.7573,-4.7588,-4.7653,-4.7645,-4.7755,-4.7629,-4.771,-4.7713,-4.7706,-4.7978,-4.8028,-4.8224,-4.7886,-4.7891,-4.7894,0,-4.7003,-4.7017,-4.7046,-4.7063,-4.7082,-4.7136,-4.7225,-4.7276,-4.7315,-4.7345,-4.7418,-4.7505,-4.7447,-4.7473,-4.7439,-4.7507,-4.768,-4.7435,-4.7434,-4.748,-4.7862,-4.791,-4.7943,-4.7642,-4.7647,-4.7652,-4.786,0,-4.6714,-4.6785,-4.6863,-4.6902,-4.6939,-4.703,-4.6998,-4.7042,-4.7005,-4.6992,-4.7099,-4.7107,-4.7159,-4.7189,-4.7153,-4.7318,-4.7285,-4.7222,-4.7118,-4.7297,-4.7365,-4.7393,-4.702,-4.7017,-4.7014,-4.7012,0,0,-4.6475,-4.6575,-4.6528,-4.6611,-4.6639,-4.6555,-4.6656,-4.6673,-4.6711,-4.6732,-4.6675,-4.6799,-4.6807,-4.694,-4.6993,-4.7015,-4.7041,-4.6978,-4.7212,-4.7235,-4.7256,-4.7329,-4.7358,-4.7007,-4.7006,-4.7005,-4.7004,0,-4.6361,-4.6371,-4.647,-4.6486,-4.6507,-4.6488,-4.6512,-4.6518,-4.6514,-4.6617,-4.6545,-4.6606,-4.6704,-4.6723,-4.6745,-4.6963,-4.6904,-4.6981,-4.7108,-4.7186,-4.7212,-4.7235,-4.7313,-4.7341,-4.6997,-4.6998,-4.6998,0,-4.6156,-4.6159,-4.6203,-4.6261,-4.6274,-4.6343,-4.6226,-4.6303,-4.6354,-4.6256,-4.6359,-4.6359,-4.6381,-4.651,-4.6567,-4.6516,-4.6782,-4.6692,-4.6708,-4.6713,-4.6786,-4.6818,-4.6846,-4.6476,-4.6474,-4.6473,0,0,-4.6062,-4.6126,-4.6116,-4.6234,-4.6247,-4.6218,-4.6251,-4.6216,-4.6236,-4.6245,-4.6242,-4.6265,-4.6321,-4.636,-4.6411,-4.6558,-4.6558,-4.6629,-4.6653,-4.6674,-4.669,-4.6769,-4.68,-4.6467,-4.6466,-4.6466,0,0,-4.6017,-4.6009,-4.5967,-4.6099,-4.6121,-4.6118,-4.6191,-4.614,-4.6182,-4.6168,-4.6113,-4.6116,-4.6236,-4.6238,-4.6157,-4.6373,-4.6272,-4.629,-4.6367,-4.6398,-4.6422,-4.6418,-4.6038,0,0,0,0,0,-4.5882,-4.6009,-4.5972,-4.5989,-4.606,-4.6139,-4.6148,-4.6105,-4.6034,-4.6094,-4.6084,-4.6018,-4.6183,-4.611,-4.6128,-4.6218,-4.6385,-4.6399,-4.6413,-4.6546,-4.6578,-4.6606,0,0,0,0,0,0,-4.5888,-4.5909,-4.5968,-4.5971,-4.5987,-4.6134,-4.6005,-4.5996,-4.6027,-4.6013,-4.6023,-4.6019,-4.5984,-4.6098,-4.6115,-4.6201,-4.6032,-4.639,-4.6403,-4.6414,-4.6557,-4.6584,-4.6606,0,0,0,0,0,-4.5893,-4.5909,-4.6035,-4.5969,-4.5983,-4.5956,-4.5999,-4.5991,-4.6014,-4.5997,-4.5991,-4.5979,-4.5987,-4.5998,-4.6108,-4.6195,-4.602,-4.6026,-4.6398,-4.6408,-4.6417,-4.657,0,0,0,0,0,0,-4.5896,-4.5903,-4.6037,-4.6039,-4.5916,-4.5947,-4.595,-4.5988,-4.5995,-4.5991,-4.595,-4.5939,-4.5991,-4.5999,-4.6008,-4.6195,-4.601,-4.6017,-4.6021,-4.6406,-4.6413,-4.642,0,0,0,0,0,0,-4.5894,-4.5906,-4.6038,-4.5974,-4.5969,-4.5939,-4.5942,-4.6028,-4.5997,-4.5947,-4.5938,-4.5945,-4.5978,-4.6001,-4.6007,-4.6144,-4.6003,-4.6009,-4.6013,-4.6016,-4.6412,-4.6418,0,0,0,0,0,0,-4.5898,-4.5908,-4.5973,-4.5969,-4.5964,-4.599,-4.6014,-4.609,-4.5942,-4.5948,-4.5927,-4.5921,-4.5981,-4.5987,-4.6007,-4.6141,-4.6143,-4.6003,-4.6007,-4.601,-4.6012,0,0,0,0,0,0,0,-4.5901,-4.5842,-4.6022,-4.5965,-4.5961,-4.6063,-4.6064,-4.6065,-4.594,-4.5935,-4.5929,-4.5923,-4.5967,-4.5974,-4.598,-4.6139,0,0,-4.6002,-4.6005,0,0,0,0,0,0,0,0,-4.5836,-4.584,-4.6022,-4.6022,-4.6023,-4.6063,-4.6064,-4.6064,-4.5939,-4.5935,-4.593,-4.5926,-4.5969,-4.5974,-4.598,0,0,0,0,0,0,0,0,0,0,0,0,0,0,0,-4.6022,-4.6022,0,-4.6063,-4.6064,-4.6064,-4.5939,-4.5935,-4.5931,-4.5927,-4.597,-4.5975,-4.5979,0,0,0,0,0,0,0,0,0,0,0,0,0,0,0,0,0,0,0,0,0,0,0,0,0,0,0,0,0,0,0,0,0,0,0,0,0,0,0,0,0,0,0,0,0,0,0,0,0,0,0,0,0,0,0,0,0,0,0,0,0,0,0,0,0,0,0,0,0]}],[{"header":{"parameterUnit":"kt","parameterCategory":2,"dx":1,"dy":1,"la1":30.253999710083008,"la2":30.299108505249023,"lo1":-89.0895004272461,"lo2":-89.04439544677734,"nx":28,"ny":28,"refTime":"2022-10-15T21:00:00:Z","depth":0,"parameterNumber":2,"parameterNumberName":"V-component_of_WINDS"},"data":[4.1483,4.1518,4.154,4.1589,4.1617,4.1653,4.1673,4.1701,4.1727,4.1771,4.18,4.1823,4.1857,4.1894,4.1925,4.1934,4.1945,4.1942,4.1953,4.1951,4.1952,4.1953,4.1947,4.1944,4.1944,4.1952,4.1952,4.1952,4.148,4.1509,4.1542,4.1588,4.1616,4.1633,4.167,4.1691,4.1722,4.1755,4.1785,4.1824,4.1857,4.1892,4.1926,4.194,4.1949,4.1948,4.1947,4.1952,4.1951,4.1945,4.194,4.194,4.194,4.194,4.194,4.194,4.1482,4.1501,4.1543,4.1578,4.1607,4.1638,4.1659,4.1689,4.1719,4.176,4.1779,4.1813,4.1849,4.19,4.1921,4.1947,4.1952,4.1957,4.1958,4.1958,4.1957,4.1942,4.1954,4.1954,4.1954,4.1954,4.1954,0,4.1489,4.1507,4.154,4.1579,4.1606,4.1637,4.167,4.1684,4.1726,4.1748,4.1783,4.1806,4.185,4.1883,4.192,4.1941,4.1959,4.1962,4.1966,4.1958,4.1946,4.1953,4.195,4.1962,4.1962,4.1962,4.1962,4.1962,4.1492,4.1512,4.1566,4.1586,4.161,4.164,4.1663,4.1698,4.172,4.1764,4.1778,4.1812,4.1841,4.189,4.1922,4.1954,4.1962,4.1965,4.1967,4.1959,4.1962,4.1961,4.1963,4.1963,4.1963,4.1963,4.1963,0,4.1491,4.1528,4.1566,4.1617,4.163,4.1648,4.1691,4.171,4.1737,4.1767,4.1776,4.1816,4.1848,4.188,4.1921,4.1936,4.1964,4.1971,4.1952,4.1956,4.1961,4.196,4.1973,4.1977,4.1981,4.198,4.198,0,4.1508,4.1532,4.1586,4.1605,4.1633,4.167,4.1695,4.1721,4.1753,4.1777,4.1804,4.1825,4.1862,4.1888,4.191,4.1938,4.1946,4.1959,4.1965,4.1957,4.1955,4.1967,4.1967,4.1977,4.1976,4.1976,4.1976,0,4.1503,4.156,4.1593,4.1611,4.1667,4.1681,4.1704,4.1741,4.1762,4.1793,4.1807,4.1841,4.1859,4.1883,4.1912,4.1913,4.1947,4.1954,4.196,4.196,4.1966,4.1965,4.197,4.1976,4.1976,4.1976,4.1976,0,4.1522,4.1557,4.1599,4.1646,4.1659,4.168,4.1717,4.1742,4.1778,4.1795,4.182,4.1841,4.1868,4.1872,4.191,4.1903,4.1919,4.1934,4.1935,4.1939,4.1943,4.1941,4.1942,4.1943,4.1943,4.1943,4.1942,0,4.1507,4.1559,4.1591,4.1629,4.1658,4.1688,4.1711,4.1742,4.1766,4.1793,4.1818,4.1847,4.1857,4.187,4.1884,4.1911,4.1921,4.1911,4.1945,4.1946,4.1935,4.1937,4.1929,4.1938,4.1939,4.194,4.194,0,4.1499,4.1569,4.1574,4.1597,4.1646,4.1669,4.1696,4.1733,4.1749,4.1781,4.1804,4.1844,4.1853,4.1874,4.1895,4.1908,4.1915,4.1916,4.1917,4.1914,4.194,4.1933,4.1935,4.1925,4.1926,4.1926,4.1937,0,4.152,4.1551,4.1565,4.1614,4.1638,4.1663,4.17,4.1719,4.1738,4.1763,4.1796,4.1828,4.1864,4.1874,4.1891,4.1912,4.1913,4.1922,4.1928,4.1929,4.1933,4.1935,4.1919,4.1919,4.1919,4.1919,0,0,4.1496,4.1541,4.1576,4.1604,4.1626,4.1657,4.1681,4.1705,4.1752,4.1766,4.177,4.1832,4.1857,4.1893,4.1896,4.191,4.1917,4.1915,4.1928,4.1929,4.193,4.1934,4.1935,4.192,4.192,4.192,4.192,0,4.1512,4.1542,4.1567,4.1594,4.1636,4.1662,4.1668,4.1714,4.1731,4.1764,4.1786,4.181,4.1857,4.1882,4.1901,4.1912,4.1926,4.192,4.1915,4.193,4.193,4.1931,4.1935,4.1936,4.1921,4.1921,4.1921,0,4.1511,4.1547,4.1563,4.1616,4.1643,4.1671,4.1687,4.1716,4.1736,4.1765,4.1797,4.1819,4.1854,4.1884,4.1898,4.1901,4.1933,4.1929,4.1928,4.193,4.1946,4.1947,4.1947,4.1942,4.1942,4.1942,0,0,4.1519,4.1549,4.1597,4.1622,4.1638,4.1676,4.1695,4.1715,4.1748,4.1761,4.1791,4.1821,4.1849,4.1866,4.1894,4.1921,4.1931,4.193,4.1929,4.1928,4.193,4.1946,4.1946,4.1942,4.1942,4.1942,0,0,4.1523,4.1581,4.1595,4.1628,4.166,4.1708,4.1721,4.1738,4.1767,4.1768,4.1802,4.1811,4.1839,4.1859,4.1853,4.1897,4.1902,4.1904,4.1882,4.1882,4.1881,4.1875,4.1872,0,0,0,0,0,4.1558,4.1575,4.1586,4.1598,4.1663,4.1702,4.171,4.174,4.1744,4.1754,4.1781,4.1795,4.1863,4.1858,4.1867,4.1874,4.1939,4.1939,4.194,4.1918,4.1917,4.1916,0,0,0,0,0,0,4.1563,4.1576,4.1586,4.1634,4.1649,4.1702,4.1715,4.1724,4.1744,4.1747,4.179,4.1797,4.1821,4.1855,4.1863,4.1869,4.1869,4.1939,4.1939,4.194,4.1918,4.1917,4.1916,0,0,0,0,0,4.1567,4.1578,4.1675,4.1634,4.1647,4.1691,4.1715,4.1722,4.1738,4.178,4.1788,4.1759,4.182,4.1829,4.186,4.1864,4.1864,4.1867,4.1939,4.194,4.194,4.1917,0,0,0,0,0,0,4.157,4.1584,4.1678,4.1683,4.1631,4.1689,4.1699,4.172,4.1771,4.1778,4.175,4.1752,4.182,4.1827,4.1833,4.1861,4.186,4.1863,4.1865,4.1939,4.194,4.194,0,0,0,0,0,0,4.1578,4.1588,4.1681,4.1675,4.1679,4.1686,4.1696,4.1725,4.1771,4.1738,4.1741,4.1751,4.181,4.1825,4.183,4.1876,4.1857,4.1859,4.1861,4.1862,4.194,4.194,0,0,0,0,0,0,4.1582,4.1591,4.1674,4.1677,4.1681,4.1739,4.1713,4.1777,4.1768,4.1735,4.1768,4.1768,4.1808,4.1813,4.1828,4.1871,4.1874,4.1857,4.1859,4.186,4.1861,0,0,0,0,0,0,0,4.1586,4.1524,4.1649,4.1679,4.1683,4.1729,4.1731,4.1732,4.1768,4.1768,4.1768,4.1768,4.1841,4.1844,4.1847,4.1868,0,0,4.1856,4.1858,0,0,0,0,0,0,0,0,4.1521,4.1523,4.1649,4.165,4.1651,4.173,4.1731,4.1732,4.1768,4.1768,4.1768,4.1768,4.1842,4.1844,4.1847,0,0,0,0,0,0,0,0,0,0,0,0,0,0,0,4.1649,4.165,0,4.173,4.1731,4.1731,4.1768,4.1768,4.1768,4.1768,4.1843,4.1845,4.1847,0,0,0,0,0,0,0,0,0,0,0,0,0,0,0,0,0,0,0,0,0,0,0,0,0,0,0,0,0,0,0,0,0,0,0,0,0,0,0,0,0,0,0,0,0,0,0,0,0,0,0,0,0,0,0,0,0,0,0,0,0,0,0,0,0,0,0,0,0]}]]]